Overview Statistics Trail Chart Weather Telemetry Raw packets
 

This is the latest recevied weather packets stored in our database for station/object N4UUJ-1. If no packets are shown the sender has not sent any weather packets the latest 10 day(s).

<< 14 15 16 17 18 19 20 >>
Time Temp. Humidity Pressure Rain* Wind** Luminosity Snow
1787903390 16.67° C 75% 1019.5 hPa 0 mm - - -
1787901589 16.67° C 75% 1019.5 hPa 0 mm - - -
1787899788 17.22° C 75% 1019.3 hPa 0 mm - - -
1787897987 17.22° C 75% 1019.3 hPa 0 mm - - -
1787896186 17.22° C 75% 1019.2 hPa 0 mm - - -
1787894385 17.78° C 75% 1019.1 hPa 0 mm - - -
1787892584 18.33° C 75% 1019.3 hPa 0 mm - - -
1787890783 18.33° C 75% 1019.1 hPa 0 mm - - -
1787888982 18.89° C 75% 1019 hPa 0 mm - - -
1787887181 18.89° C 75% 1019 hPa 0 mm - - -
1787885380 18.89° C 75% 1018.9 hPa 0 mm - - -
1787883579 19.44° C 75% 1019 hPa 0 mm - - -
1787881778 19.44° C 75% 1018.7 hPa 0 mm - - -
1787879977 20° C 75% 1018.3 hPa 0 mm - - -
1787878176 21.11° C 75% 1018.2 hPa 0 mm - - -
1787876375 22.78° C 75% 1017.8 hPa 0 mm - - -
1787874574 26.11° C 75% 1017.8 hPa 0 mm - - -
1787872773 26.11° C 75% 1017.8 hPa 0 mm - - -
1787870972 26.67° C 75% 1018 hPa 0 mm - - -
1787869176 27.22° C 75% 1017.9 hPa 0 mm - - -
1787867370 27.78° C 75% 1017.9 hPa 0 mm - - -
1787865569 28.33° C 75% 1017.9 hPa 0 mm - - -
1787863768 28.89° C 75% 1018 hPa 0 mm - - -
1787861967 29.44° C 75% 1018.2 hPa 0 mm - - -
1787860166 29.44° C 75% 1018.3 hPa 0 mm - - -

* Rain latest hour (hover to see other rain measurements)
** Current wind speed in m/s (hover to see current wind gust speed)